Torna al catalogo

COSMOS 374 DEB

AttivoLEO
NORAD 4667·DEBRIS·🇷🇺 Russia

Lanciato Oct 23, 1970 da Baikonur Cosmodrome

Loading…

Prossimi Passaggi (prossime 24 ore)

TLE

AggiornatoSource: Space-Track

Epoca: Sep 14, 2026, 08:05 UTC

1 04667U 70089K   26257.33681430  .00003588  00000-0  88518-3 0  9994
2 04667  62.9286  26.5110 0659481 132.9719 232.8590 13.69124951700870

Traccia COSMOS 374 DEB in tempo reale con AllMySat

Download on the App Store